Location: Blasbach
(50.6089°N, 8.5189°E)
Time: 07:58:12
(UTC+00:00)

Daily predictions for brighter satellites

Satellite Brightness Start Highest point End
(mag) Time Altitude Azimuth Time Altitude Azimuth Time Altitude Azimuth
Cosmos 1844 Rocket 4.4 16:31:37 10° ESE 16:34:06 13° E 16:36:35 10° ENE
Cosmos 1025 Rocket 3.4 16:30:30 10° SSW 16:34:49 68° WNW 16:39:11 10° N
CZ-2C R/B 3.9 16:31:23 10° ESE 16:36:01 30° ENE 16:40:51 10° N
Cosmos 2344 4.5 16:29:37 10° NW 16:37:22 41° NNE 16:47:23 10° E
H-2A R/B 2.4 16:33:42 10° SSE 16:37:44 85° ENE 16:41:57 10° NNW
Okean-O 4.0 16:35:00 10° E 16:37:58 18° ENE 16:40:57 10° NNE
CZ-4B R/B 3.1 16:36:31 10° NE 16:38:47 17° E 16:41:01 10° SE
H-2A R/B 3.2 16:35:32 10° ESE 16:39:05 20° NE 16:42:42 10° NNE
Okean O Rocket 1.6 16:36:12 10° SSE 16:40:36 64° ENE 16:45:00 10° N
Cosmos 773 Rocket 4.0 16:35:29 10° NNW 16:40:38 61° ENE 16:45:43 10° SE
SeaSat 1 3.4 16:36:30 10° NNE 16:41:12 45° NW 16:45:52 10° WSW
YAOGAN 6 3.6 16:38:59 10° S 16:42:27 51° W 16:46:00 10° NNW
SMAP 3.1 16:37:57 10° SSE 16:42:37 86° ENE 16:47:18 10° NNW
Cosmos 1626 2.1 16:39:33 10° S 16:43:12 66° E 16:46:53 10° NNE
CZ-4B R/B 3.3 16:39:08 10° SSE 16:44:41 83° ENE 16:50:22 10° NNW
SL-24 R/B 4.1 16:40:51 10° SSE 16:45:11 78° ENE 16:49:53 10° NNW
AQUARIUS 4.2 16:45:02 10° SSE 16:49:32 88° ENE 16:54:04 10° NNW
Cosmos 1603 4.1 16:44:03 10° NNW 16:49:44 71° WSW 16:55:26 10° SSE
Meteor 2-10 Rocket 4.1 16:45:09 10° N 16:50:22 39° ENE 16:55:22 10° SE
Cosmos 2297 Rocket 3.9 16:45:37 10° W 16:50:23 27° NW 16:55:11 10° NNE
OPS 8737 4.3 16:52:25 10° NW 16:55:26 64° NE 16:59:14 10° SE
Cosmos 1606 Rocket 3.5 16:51:24 10° N 16:55:47 63° ENE 17:00:08 10° SSE
CZ-2D R/B 3.8 16:53:50 10° SE 16:57:22 35° ENE 17:00:53 10° N
H-2A R/B 2.1 16:53:02 10° NNE 16:57:31 68° ESE 17:01:52 10° S
USA 234 3.6 16:52:59 10° ENE 16:59:16 51° N 17:05:34 10° WNW
YAOGAN 1 3.6 16:56:38 10° ESE 17:00:08 24° ENE 17:03:39 10° N
Cosmos 1892 Rocket 4.2 16:56:25 10° SSE 17:00:19 33° E 17:04:13 10° NNE
CZ-4C R/B 3.2 16:58:17 10° N 17:01:26 63° WNW 17:04:33 10° SSW
ATLAS 5 CENTAUR R/B 1.5 16:57:45 10° SW 17:01:47 74° SE 17:06:05 12° NE
FengYun 1-2 T 4.3 16:56:41 10° SSE 17:02:15 88° WSW 17:07:55 10° NNW
Tsikada Rocket 4.4 16:57:42 10° SSW 17:03:59 68° WNW 17:10:15 10° N
SL-14 R/B 3.2 17:01:49 10° S 17:05:41 89° E 17:09:38 10° N
Helios 1A Rocket 4.1 17:02:46 10° ESE 17:06:00 22° ENE 17:09:14 10° N
MOS 1 Rocket 4.0 17:03:03 10° NE 17:06:47 27° E 17:10:26 10° SSE
RESURS DK-1 2.8 17:03:11 10° SW 17:07:17 63° NW 17:11:25 10° NNE
ATLAS 3B R/B 4.1 17:01:03 10° NW 17:07:34 44° WSW 17:14:19 10° S
Cosmos 2228 3.0 17:03:29 10° N 17:07:46 89° W 17:12:04 10° S
Cosmos 2142 Rocket 4.5 17:03:34 10° N 17:09:47 87° E 17:15:56 10° S
NOSS 7 (E) 4.2 17:06:28 10° SW 17:10:05 84° SE 17:12:25 16° NE
SKYMED 2 4.0 17:08:42 10° NNE 17:12:49 40° E 17:16:55 10° SSE
Cosmos 1538 Rocket 3.9 17:09:10 10° NNW 17:14:21 68° ENE 17:19:29 10° SSE
Aureole 3 4.0 17:11:27 10° N 17:14:35 25° ENE 17:17:18 10° SE
Meteor 2-5 Rocket 3.7 17:09:05 10° SSW 17:14:40 88° W 17:20:14 10° NNE
CZ-4C R/B 2.9 17:10:12 10° WSW 17:15:18 50° NW 17:21:18 11° NE
CZ-3B R/B 1.4 17:14:13 10° WNW 17:16:22 57° NNE 17:20:09 14° E
SJ 16-02 2.6 17:14:12 10° SSE 17:17:34 22° E 17:18:57 19° ENE
Nadezhda 4 Rocket 4.4 17:13:22 10° SSE 17:19:04 39° E 17:24:46 10° NNE
Cosmos 1777 Rocket 4.1 17:15:37 10° S 17:20:44 55° ESE 17:25:55 10° NNE
Cosmos 2263 Rocket 2.4 17:16:58 10° SW 17:22:40 75° WNW 17:28:21 10° NNE
YAOGAN 3 4.5 17:18:35 10° SSE 17:22:57 80° ENE 17:27:20 10° NNW
Cosmos 1455 2.7 17:21:42 10° N 17:25:15 35° ENE 17:28:47 10° SE
Cosmos 1354 Rocket 4.4 17:21:55 10° SW 17:27:13 67° WNW 17:32:34 10° NNE
Cosmos 2058 Rocket 3.0 17:22:44 10° N 17:27:13 67° ENE 17:31:43 10° SSE
Cosmos 1300 4.0 17:25:48 10° NNW 17:29:27 44° W 17:33:04 10° SSW
COSMOS 2406 4.3 17:26:06 10° NNW 17:30:50 25° NE 17:32:43 21° ENE
X-37B 3.0 17:31:19 10° S 17:32:36 12° SSE 17:33:14 11° SE
ARGOS 3.5 17:33:27 10° SE 17:38:26 41° ENE 17:43:27 10° N
Lacrosse 5 1.8 17:35:53 10° WNW 17:40:58 87° SW 17:45:00 16° SE
NOSS 3-1 (C) 4.1 17:34:09 10° NW 17:41:04 54° NE 17:47:11 18° ESE
CREW DRAGON DEMO-1 DEB 2.6 17:38:15 10° WNW 17:41:10 84° SSW 17:41:52 47° ESE
Okean 1-7 Rocket 3.6 17:37:19 10° S 17:41:47 58° E 17:46:17 10° NNE
Cosmos 1726 Rocket 4.2 17:38:26 10° NNW 17:42:44 57° W 17:47:01 10° S
ERS-2 2.3 17:42:02 29° NE 17:43:32 47° E 17:47:03 10° S
ISS -2.1 17:42:17 10° SSW 17:44:54 21° SE 17:45:00 21° SE
CZ-2C R/B 3.8 17:45:49 23° ESE 17:45:49 23° ESE 17:49:29 10° SE
Cosmos 1939 Rocket 3.9 17:41:35 10° S 17:45:35 50° W 17:49:36 10° NNW
PSLV R/B 4.3 17:43:31 22° NE 17:45:53 45° E 17:49:55 10° S
CSL-04 Debris 4.3 17:43:19 10° SE 17:48:30 50° ENE 17:53:42 10° N
Meteor 1-24 Rocket 4.1 17:43:35 10° SSW 17:48:51 60° WNW 17:54:07 10° N
COSMOS 2455 2.8 17:44:02 10° SSW 17:50:00 69° ESE 17:54:02 22° NE
Cosmos 1626 Rocket 3.9 17:48:56 10° SSE 17:53:02 41° E 17:54:01 35° ENE
Cosmos 1833 Rocket 3.5 17:49:13 10° NNW 17:54:04 28° NE 17:54:41 28° NE
Cosmos 1844 4.1 17:49:47 10° S 17:55:04 42° ESE 17:57:10 30° ENE
Cosmos 2082 Rocket 3.5 17:51:30 10° NNW 17:55:47 21° NE 17:55:56 21° NE
Cosmos 2026 Rocket 4.4 17:50:44 10° SSE 17:56:11 36° E 18:01:45 10° NNE
IRS-1C Rocket 4.3 17:51:08 10° S 17:56:22 74° WSW 18:01:40 10° NNW
USA 281 4.4 17:56:41 22° NE 17:57:29 22° NE 18:02:16 10° N
CZ-4 R/B 1.3 17:53:42 10° SSE 17:57:49 88° WSW 18:01:53 10° NNW
USA 229 DEB 4.1 17:51:05 10° NW 17:58:02 51° NNE 18:01:49 28° E
USA 229 4.1 17:51:11 10° NW 17:58:08 51° NNE 18:01:52 29° E
NOAA 15 4.5 17:53:55 10° SSE 17:59:10 84° ENE 18:04:29 10° NNW
COSMO-SKYMED 1 2.8 17:56:41 10° N 18:01:02 72° WNW 18:05:21 10° SSW
USA 267 4.3 18:04:13 24° ESE 18:04:57 25° SE 18:10:06 10° S
SL-08 RB Rocket 3.9 18:05:15 44° ENE 18:05:15 44° ENE 18:09:33 10° N
Ariane Rocket 4.5 18:10:03 21° NNE 18:10:03 21° NNE 18:12:16 10° N
CZ-4B R/B 2.8 18:08:14 12° N 18:11:10 38° WNW 18:14:18 10° SW
NOSS 3-1 (A) 4.1 18:06:40 10° NW 18:13:37 54° NE 18:16:57 34° E
Okean-O 2.9 18:09:33 10° S 18:13:58 70° WSW 18:18:25 10° NNW
CZ-2C R/B 4.0 18:10:26 10° S 18:15:36 52° W 18:21:06 10° NNW
Cosmos 923 Rocket 4.0 18:10:40 10° NNW 18:16:04 85° WSW 18:21:23 10° SSE
Cosmos 1844 Rocket 2.6 18:11:21 10° SSW 18:16:59 73° ESE 18:19:24 35° NE
H-2A R/B 2.1 18:12:57 10° S 18:17:56 77° WSW 18:23:05 10° NNW
Cosmos 1689 Rocket 4.3 18:20:00 18° SSW 18:20:00 18° SSW 18:20:52 10° SSW
Meteor 1-21 Rocket 4.0 18:14:06 10° S 18:19:37 78° E 18:25:12 10° NNE
Aureole 2 Rocket 3.1 18:17:15 10° SSW 18:19:28 44° SW 18:19:28 44° SW
ATLAS 2AS CENTAUR R/B 3.9 18:13:25 10° W 18:20:47 40° NNW 18:25:30 21° NNE
Cosmos 158 Rocket 4.2 18:16:07 10° NNW 18:21:26 72° WSW 18:26:48 10° SSE
Cosmos 2195 Rocket 4.4 18:15:28 10° S 18:21:41 63° E 18:27:57 10° NNE
Meteor 2-8 Rocket 4.3 18:15:39 10° N 18:21:45 71° ENE 18:27:50 10° SSE
Meteor 2-15 4.5 18:16:22 10° N 18:22:23 53° ENE 18:24:41 35° SE
Cosmos 1680 Rocket 3.4 18:18:10 10° NNW 18:23:28 86° ENE 18:26:36 25° SSE
Cosmos 1898 Rocket 4.4 18:20:27 10° S 18:23:42 32° SE 18:23:42 32° SE
SAR-Lupe-4 4.0 18:31:27 60° W 18:31:27 60° W 18:34:52 10° SSW
Cosmos 1627 Rocket 4.4 18:25:27 10° S 18:31:32 66° E 18:37:45 10° NNE
Cosmos 2098 Rocket 4.3 18:26:01 10° SSE 18:32:57 57° E 18:40:12 10° NNE
Cosmos 1602 Rocket 4.3 18:28:44 10° S 18:31:34 40° S 18:31:34 40° S
Cosmos 1818 3.4 18:28:30 10° SW 18:33:56 82° SE 18:34:52 62° NE
YAOGAN 1 3.7 18:31:52 10° S 18:36:01 44° W 18:40:11 10° NNW
Cosmos 1428 Rocket 4.4 18:30:20 10° S 18:36:33 67° E 18:42:49 10° NNE
CSL-04 Rocket 3.8 18:34:23 10° S 18:39:47 74° WSW 18:45:18 10° NNW
Helios 1A Rocket 3.9 18:36:54 10° S 18:40:53 46° W 18:44:55 10° NNW
USA 234 3.2 18:40:20 53° E 18:41:53 70° NNE 18:48:25 10° WNW
Iridium 4 Rocket 3.7 18:39:52 10° N 18:45:39 80° W 18:51:00 10° S
Cosmos 1092 Rocket 3.9 18:40:28 10° S 18:46:41 83° W 18:52:53 10° N
ATLAS 5 CENTAUR R/B 3.1 18:43:08 10° W 18:46:53 28° NNW 18:47:38 27° N
Cosmos 1812 Rocket 3.9 18:44:27 10° NNW 18:48:50 64° W 18:48:54 64° WSW
Meteor 2-15 Rocket 4.4 18:45:29 10° N 18:51:11 65° NE 18:51:11 65° NE
Cosmos 2344 4.2 18:44:15 10° NW 18:53:17 84° NE 18:59:35 33° SE
SJ 16-02 2.1 18:51:34 10° SW 18:55:51 49° WNW 18:55:59 49° NW
CZ-4C R/B 3.9 19:00:22 10° WNW 19:05:19 27° N 19:06:30 26° N
Cosmos 2263 Rocket 4.3 19:03:25 10° W 19:07:35 20° NW 19:10:38 14° N
COSMOS 2406 3.5 19:10:04 10° NNW 19:14:49 61° NW 19:14:49 61° NW
Lacrosse 5 3.8 19:19:29 10° WNW 19:23:25 23° SW 19:24:15 22° SW
CZ-2C R/B 3.5 19:27:19 45° SW 19:27:19 45° SW 19:31:16 10° SSW
NOSS 3-1 (C) 4.4 19:25:00 10° NW 19:32:17 59° SW 19:34:39 45° S
Cosmos 1553 Rocket 4.4 19:29:41 10° NNW 19:36:02 62° W 19:36:14 61° WSW
COSMOS 2455 4.1 19:30:57 10° W 19:36:25 34° NW 19:37:13 33° NNW
Cosmos 1833 Rocket 3.8 19:32:54 10° NNW 19:36:24 39° NW 19:36:24 39° NW
Cosmos 2082 Rocket 3.7 19:35:07 10° NNW 19:37:47 29° NNW 19:37:47 29° NNW
USA 281 4.1 19:43:33 39° NNW 19:43:33 39° NNW 19:47:33 10° NNW
USA 267 4.3 19:51:34 36° SW 19:51:34 36° SW 19:55:15 10° SW
USA 229 DEB 4.2 19:42:08 10° NW 19:49:16 59° SW 19:49:18 59° SW
USA 229 4.2 19:42:14 10° NW 19:49:20 60° WSW 19:49:20 60° WSW
Cosmos 1844 Rocket 4.4 19:56:38 10° W 20:01:07 27° NW 20:01:07 27° NW
NOSS 3-1 (A) 4.4 19:57:35 10° NW 20:04:27 58° WSW 20:04:27 58° WSW
ATLAS 2AS CENTAUR R/B 4.2 20:07:02 10° WNW 20:12:56 30° N 20:12:56 30° N
